{"data":{"norad_id":58476,"intl_designator":"2023-186D","name":"STARLINK-30980","alt_names":[],"object_type":"PAYLOAD","status":"ACTIVE","operator":null,"country":"US","launch_date":"2023-12-03","launch_site_code":"AFETR","launch_vehicle":null,"mission":null,"orbit_class":"UNKNOWN","rcs_meters":null,"size_class":null,"mass_kg":null,"dimensions":null,"purposes":["comms"],"wikipedia_slug":null,"has_3d_model":false,"image_url":null,"decayed_at":null,"tle_current":{"epoch":"2026-05-24T22:19:39.541728Z","epoch_age_seconds":77149,"freshness":"FRESH","line1":"1 58476U 23186D   26144.93031877  .00001018  00000+0  46542-4 0  9999","line2":"2 58476  43.0038 356.7082 0001930 268.2810  91.7820 15.27575891137515","mean_motion":15.27575891,"eccentricity":0.000193,"inclination_deg":43.0038,"raan_deg":356.7082,"arg_perigee_deg":268.281,"mean_anomaly_deg":91.782,"bstar":4.6542e-5,"rev_number":13751,"period_min":94.267002280151,"perigee_km":481.73718860026,"apogee_km":484.38561118262,"semimajor_km":6861.1983998914,"source":"CELESTRAK","updated_at":"2026-05-25T13:38:18.649731Z"}}}